[[{"header":{"parameterUnit":"m.s-1","parameterCategory":1,"la1":30.2991,"la2":30.254,"lo1":-89.0895,"lo2":-89.0444,"dy":0.0017,"dx":0.0017,"nx":28,"ny":28,"refTime":"2025-09-16T09:00:00:Z","depth":0,"parameterNumber":2,"parameterNumberName":"U-component_of_WINDS"},"data":[0,0,0,0,0,0,0,0,0,0,0,0,0,0,0,0,0,0,0,0,0,0,0,0,0,0,0,0,0,0,0,0,0,0,0,0,0,0,0,0,0,0,0,0,0,0,0,0,0,0,0,0,0,0,0,0,0,0,2.4962,2.4962,0,2.4954,2.4954,2.4953,2.4887,2.4886,2.4884,2.4882,2.4873,2.4874,2.4875,0,0,0,0,0,0,0,0,0,0,0,0,0,2.4918,2.4919,2.4962,2.4962,2.4962,2.4954,2.4954,2.4953,2.4888,2.4886,2.4884,2.4882,2.4872,2.4874,2.4875,0,0,0,0,0,0,0,0,0,0,0,0,0,2.4926,2.4919,2.4962,2.4928,2.4925,2.4954,2.4953,2.4953,2.4888,2.4885,2.4883,2.4881,2.4872,2.4874,2.4876,2.4936,0,0,2.4881,2.4882,0,0,0,0,0,0,0,0,2.4926,2.4928,2.4933,2.493,2.4927,2.4919,2.4934,2.4948,2.4889,2.4902,2.4882,2.488,2.489,2.489,2.4894,2.4936,2.4935,2.4882,2.4883,2.4883,2.4884,0,0,0,0,0,0,0,2.4925,2.4928,2.4959,2.4933,2.493,2.4912,2.491,2.4936,2.491,2.4901,2.4896,2.4896,2.4888,2.4892,2.4893,2.4935,2.4881,2.4883,2.4884,2.4885,2.502,2.5023,0,0,0,0,0,0,2.493,2.4928,2.4959,2.4958,2.492,2.4915,2.4913,2.4924,2.4909,2.4905,2.4898,2.4893,2.489,2.4891,2.4893,2.4958,2.4883,2.4885,2.4886,2.5018,2.5021,2.5023,0,0,0,0,0,0,2.4929,2.4933,2.4959,2.4942,2.4944,2.4918,2.4931,2.4925,2.4929,2.4907,2.4902,2.4907,2.4888,2.489,2.4925,2.4957,2.4886,2.4888,2.5015,2.5019,2.5022,2.5093,0,0,0,0,0,0,2.4928,2.4933,2.4957,2.4943,2.4945,2.4993,2.4933,2.4927,2.4933,2.4926,2.4915,2.4911,2.4887,2.4922,2.4926,2.4958,2.4889,2.5012,2.5017,2.5021,2.5087,2.5098,2.5108,0,0,0,0,0,2.4927,2.4978,2.4959,2.4963,2.4974,2.4995,2.4996,2.4967,2.4936,2.4958,2.4944,2.4911,2.4954,2.4926,2.4931,2.4964,2.501,2.5015,2.5021,2.5083,2.5096,2.5108,0,0,0,0,0,0,2.4998,2.4976,2.4954,2.5003,2.5001,2.4984,2.5011,2.4983,2.4991,2.4984,2.4948,2.4946,2.4985,2.4978,2.4948,2.5019,2.4976,2.4982,2.5021,2.5034,2.5044,2.5043,2.4891,0,0,0,0,0,2.5019,2.5038,2.5018,2.5063,2.5063,2.5038,2.5046,2.5023,2.502,2.5019,2.5007,2.5004,2.5016,2.5026,2.5036,2.5087,2.5081,2.5112,2.5122,2.513,2.5136,2.5157,2.5169,2.5042,2.5042,2.5041,0,0,2.5063,2.5054,2.5068,2.5077,2.5073,2.5091,2.5037,2.5061,2.5073,2.5023,2.5053,2.5044,2.5039,2.508,2.5098,2.5076,2.517,2.5137,2.5144,2.5145,2.5164,2.5176,2.5187,2.5045,2.5045,2.5044,0,0,2.5152,2.5149,2.5183,2.518,2.5174,2.5156,2.5165,2.5151,2.5142,2.5173,2.5134,2.5148,2.5172,2.5168,2.5169,2.5254,2.5222,2.5258,2.5311,2.5332,2.5342,2.5351,2.5377,2.5387,2.5264,2.5264,2.5264,0,2.5208,2.5235,2.5205,2.5229,2.5232,2.5187,2.5219,2.5218,2.5216,2.5219,2.5194,2.5219,2.5213,2.5251,2.5271,2.5275,2.5281,2.5258,2.5343,2.5352,2.5359,2.5383,2.5394,2.5268,2.5268,2.5268,2.5267,0,2.5301,2.532,2.5349,2.5346,2.5353,2.5382,2.5354,2.5365,2.5342,2.5326,2.5355,2.5346,2.5351,2.5359,2.5339,2.5393,2.5379,2.535,2.5305,2.5376,2.5398,2.5407,2.5274,2.5273,2.5272,2.5271,0,0,2.5434,2.5413,2.5423,2.542,2.5409,2.5423,2.5448,2.5453,2.5461,2.5461,2.5479,2.5498,2.547,2.5471,2.5449,2.5469,2.553,2.5436,2.5435,2.545,2.5585,2.5604,2.5616,2.5511,2.5512,2.5514,2.5584,0,2.5516,2.5558,2.553,2.5576,2.5591,2.5547,2.5568,2.5563,2.5549,2.5558,2.5543,2.5555,2.5519,2.5518,2.5536,2.5519,2.5556,2.5514,2.5524,2.5525,2.5523,2.5628,2.5649,2.5716,2.5593,2.5594,2.5595,0,2.5617,2.562,2.5667,2.5649,2.5654,2.5674,2.5674,2.5685,2.5677,2.5665,2.5665,2.5637,2.5658,2.5616,2.5643,2.5615,2.5618,2.561,2.5612,2.5609,2.5562,2.5624,2.5737,2.5746,2.5609,2.5608,2.5607,0,2.5704,2.572,2.5748,2.5747,2.5728,2.5742,2.5735,2.5725,2.5728,2.5729,2.573,2.5733,2.5734,2.5736,2.5709,2.5682,2.5738,2.5695,2.5725,2.5726,2.5737,2.5736,2.5848,2.5745,2.5745,2.5745,2.5745,0,2.5796,2.5826,2.5786,2.5804,2.5834,2.5801,2.5832,2.582,2.5811,2.5823,2.5787,2.5799,2.5764,2.5772,2.5751,2.5774,2.5776,2.5764,2.5758,2.5765,2.5766,2.5764,2.5757,2.5748,2.5747,2.5746,2.5746,0,2.5897,2.5873,2.59,2.5879,2.5874,2.5897,2.5879,2.5893,2.5875,2.5892,2.5894,2.5866,2.5874,2.5847,2.5851,2.5836,2.5869,2.5857,2.5871,2.5866,2.5896,2.5892,2.6008,2.602,2.5914,2.5915,2.5916,0,2.5956,2.5977,2.5957,2.5963,2.5957,2.5967,2.597,2.5938,2.5942,2.5932,2.5947,2.5951,2.5952,2.5966,2.5946,2.5947,2.5932,2.5973,2.5932,2.5938,2.5928,2.5925,2.5925,2.598,2.5981,2.5983,2.5983,0,2.6061,2.6047,2.6052,2.6052,2.6055,2.6054,2.605,2.6057,2.6022,2.6028,2.6035,2.6036,2.6038,2.6041,2.6038,2.6029,2.5999,2.5997,2.6003,2.6009,2.6015,2.6008,2.589,2.5993,2.5992,2.5992,2.5991,2.5991,2.6139,2.6154,2.6142,2.6147,2.6141,2.6137,2.6148,2.6131,2.6136,2.6135,2.6116,2.6125,2.6113,2.6106,2.6099,2.6105,2.6086,2.6097,2.6098,2.61,2.6104,2.6017,2.6105,2.6105,2.6104,2.6104,2.6104,0,2.6239,2.6228,2.6234,2.6228,2.6232,2.6204,2.6197,2.6202,2.621,2.6202,2.6203,2.6209,2.6212,2.6191,2.619,2.6198,2.6184,2.6199,2.6196,2.6193,2.6123,2.6116,2.621,2.621,2.621,2.621,2.621,2.621,2.629,2.6312,2.6296,2.6314,2.6303,2.6311,2.6309,2.6304,2.6297,2.6304,2.6306,2.6292,2.6278,2.6275,2.6275,2.6269,2.6269,2.6287,2.6276,2.621,2.6199,2.6189,2.6182,2.6288,2.6288,2.6345,2.6345,2.6346]},{"header":{"parameterUnit":"m.s-1","parameterCategory":1,"la1":30.2991,"la2":30.254,"lo1":-89.0895,"lo2":-89.0444,"dy":0.0017,"dx":0.0017,"nx":28,"ny":28,"refTime":"2025-09-16T09:00:00:Z","depth":0,"parameterNumber":3,"parameterNumberName":"V-component_of_WINDS"},"data":[0,0,0,0,0,0,0,0,0,0,0,0,0,0,0,0,0,0,0,0,0,0,0,0,0,0,0,0,0,0,0,0,0,0,0,0,0,0,0,0,0,0,0,0,0,0,0,0,0,0,0,0,0,0,0,0,0,0,1.2386,1.2387,0,1.2487,1.2488,1.2489,1.2525,1.2524,1.2524,1.2524,1.2624,1.2627,1.263,0,0,0,0,0,0,0,0,0,0,0,0,0,1.2222,1.2224,1.2386,1.2388,1.2389,1.2487,1.2488,1.2489,1.2525,1.2524,1.2524,1.2524,1.2623,1.2626,1.263,0,0,0,0,0,0,0,0,0,0,0,0,0,1.2305,1.2225,1.2386,1.2418,1.2422,1.2486,1.2488,1.249,1.2525,1.2524,1.2524,1.2523,1.2622,1.2626,1.2631,1.2669,0,0,1.2644,1.2646,0,0,0,0,0,0,0,0,1.23,1.2311,1.2412,1.2416,1.2421,1.2493,1.2467,1.255,1.2525,1.2486,1.2524,1.2523,1.2581,1.2588,1.2608,1.2674,1.2678,1.2645,1.2647,1.2649,1.2651,0,0,0,0,0,0,0,1.2294,1.2306,1.2426,1.2414,1.2419,1.2427,1.2438,1.2483,1.2535,1.2489,1.2492,1.2504,1.2583,1.2604,1.2611,1.2679,1.2645,1.2649,1.2651,1.2653,1.2779,1.278,0,0,0,0,0,0,1.2283,1.2301,1.2423,1.2429,1.2358,1.243,1.2443,1.247,1.2535,1.2544,1.2504,1.2505,1.2596,1.2606,1.2615,1.2663,1.2649,1.2654,1.2656,1.2778,1.2779,1.278,0,0,0,0,0,0,1.228,1.2294,1.2419,1.2366,1.2383,1.2433,1.2464,1.2472,1.2494,1.2546,1.2555,1.2516,1.2596,1.2608,1.2655,1.2667,1.2656,1.266,1.2778,1.2779,1.278,1.276,0,0,0,0,0,0,1.2275,1.2292,1.2309,1.2366,1.2385,1.2459,1.2465,1.2475,1.2502,1.2504,1.256,1.2568,1.2597,1.2648,1.2659,1.2673,1.2663,1.2777,1.2778,1.2779,1.276,1.276,1.2761,0,0,0,0,0,1.2269,1.2299,1.2309,1.2324,1.2407,1.2459,1.247,1.2503,1.2503,1.2519,1.2551,1.2567,1.2663,1.2653,1.2666,1.2681,1.2776,1.2778,1.2779,1.276,1.276,1.2761,0,0,0,0,0,0,1.2241,1.2307,1.2319,1.2369,1.2408,1.2465,1.2487,1.2503,1.2542,1.2543,1.2581,1.2593,1.2636,1.2663,1.265,1.272,1.2721,1.2725,1.2701,1.2702,1.2702,1.2695,1.2667,0,0,0,0,0,1.2241,1.2279,1.2334,1.2373,1.2392,1.2436,1.246,1.2482,1.2524,1.254,1.2577,1.2616,1.2655,1.268,1.2719,1.2763,1.2775,1.278,1.278,1.278,1.2783,1.2807,1.281,1.2785,1.2785,1.2785,0,0,1.2241,1.2281,1.2303,1.2368,1.2401,1.2439,1.245,1.2489,1.2517,1.2546,1.2592,1.262,1.2666,1.2711,1.2733,1.2735,1.2793,1.2782,1.2782,1.2785,1.2809,1.2811,1.2813,1.2786,1.2785,1.2785,0,0,1.226,1.2295,1.233,1.2363,1.2412,1.2441,1.2449,1.2503,1.2523,1.257,1.2592,1.2625,1.2692,1.2723,1.2748,1.2776,1.2791,1.2788,1.279,1.2812,1.2814,1.2816,1.2825,1.2828,1.279,1.279,1.279,0,1.2253,1.2312,1.2346,1.2384,1.2411,1.2439,1.2475,1.2504,1.2564,1.2581,1.2582,1.2666,1.2699,1.2751,1.2758,1.2777,1.2786,1.2782,1.2811,1.2814,1.2816,1.2825,1.2828,1.279,1.279,1.279,1.279,0,1.23,1.234,1.2362,1.242,1.2449,1.2485,1.2524,1.255,1.2568,1.2596,1.2642,1.2682,1.2729,1.2743,1.2762,1.2798,1.2797,1.2804,1.2806,1.2817,1.2826,1.283,1.2789,1.2789,1.2789,1.2789,0,0,1.2306,1.2381,1.2388,1.2414,1.247,1.25,1.2537,1.2583,1.2604,1.2643,1.2674,1.2729,1.2735,1.2763,1.2785,1.2805,1.2823,1.281,1.2811,1.281,1.2863,1.2858,1.2861,1.2833,1.2834,1.2834,1.2859,0,1.2332,1.24,1.2431,1.2485,1.2521,1.2547,1.2578,1.2615,1.2641,1.2675,1.2703,1.2742,1.2748,1.2764,1.2785,1.2816,1.2834,1.2815,1.2861,1.2862,1.2849,1.2866,1.2861,1.2883,1.2863,1.2864,1.2864,0,1.2372,1.2412,1.2469,1.2518,1.2535,1.2563,1.2607,1.2639,1.268,1.2698,1.2728,1.2748,1.2786,1.2784,1.2835,1.2822,1.2842,1.2859,1.2861,1.2867,1.2864,1.2872,1.2891,1.2894,1.287,1.287,1.287,0,1.237,1.2437,1.248,1.2501,1.256,1.2579,1.2604,1.2645,1.267,1.2708,1.2724,1.2765,1.2788,1.2819,1.2849,1.2845,1.2897,1.2898,1.2912,1.2911,1.2922,1.2921,1.2944,1.2935,1.2935,1.2935,1.2935,0,1.2396,1.2429,1.2479,1.2505,1.2543,1.2577,1.2613,1.2641,1.2676,1.2707,1.2731,1.2759,1.2798,1.283,1.2854,1.2892,1.2902,1.2916,1.2922,1.2914,1.2912,1.2928,1.2928,1.2936,1.2935,1.2935,1.2935,0,1.24,1.2435,1.2483,1.2535,1.2548,1.2574,1.2617,1.2643,1.267,1.2708,1.2719,1.276,1.28,1.2833,1.2884,1.29,1.2939,1.2946,1.2926,1.2929,1.294,1.2939,1.2974,1.298,1.2967,1.2967,1.2967,0,1.2414,1.2441,1.2495,1.2518,1.2543,1.2579,1.2605,1.2638,1.2664,1.2712,1.2731,1.2772,1.2806,1.2867,1.2901,1.294,1.2948,1.2958,1.2954,1.2945,1.2948,1.2946,1.2948,1.2958,1.2958,1.2958,1.2958,0,1.2436,1.2451,1.2488,1.253,1.256,1.2594,1.2629,1.2646,1.2686,1.2713,1.2754,1.278,1.2832,1.2872,1.2914,1.2939,1.2955,1.2959,1.2964,1.2956,1.2943,1.2949,1.2926,1.2958,1.2958,1.2958,1.2958,1.2958,1.2445,1.2469,1.2511,1.255,1.258,1.2612,1.2638,1.2668,1.2702,1.2748,1.2765,1.2806,1.2844,1.2903,1.2927,1.2959,1.2961,1.2969,1.2971,1.2972,1.297,1.2937,1.2966,1.2966,1.2967,1.2967,1.2967,0,1.2467,1.2495,1.2531,1.2579,1.2609,1.2622,1.2661,1.2685,1.2721,1.2756,1.2789,1.2834,1.2873,1.2909,1.2948,1.2966,1.2975,1.2976,1.2975,1.298,1.2966,1.2958,1.2968,1.2968,1.2968,1.2968,1.2968,1.2968,1.2483,1.2524,1.2544,1.2599,1.2626,1.2667,1.2688,1.2717,1.2745,1.2795,1.2827,1.285,1.2885,1.2927,1.2962,1.2971,1.2984,1.2983,1.2995,1.2982,1.2981,1.298,1.2973,1.2986,1.2986,1.3006,1.3006,1.3006]}]]